This demonstration page uses our WeatherBlox Daily Observations layout. Learn more.

Left ArrowRight Arrow

Hourly Observations for December 12, 2019

Temp ( °F °C ) Dew Point ( °F °C ) Humidity (%) Winds ( mph kmh ) Pressure ( in mb ) Visibility ( mi km ) Precip ( " mm )
12:56 am 00:56 Clear 34 1.1 30 -1.1 85 85 S 12 19 29.97 1015 10 16 0.00 0.00
1:56 am 01:56 Clear 34 1.1 30 -1.1 85 85 SSW 10 17 29.96 1015 10 16 0.00 0.00
2:56 am 02:56 Clear 35 1.7 30 -1.1 82 82 WSW 7 11 29.97 1015 10 16 0.00 0.00
3:56 am 03:56 Clear 34 1.1 30 -1.1 85 85 WSW 9 15 29.98 1015 10 16 0.00 0.00
4:56 am 04:56 Clear 32 0 27 -2.8 82 82 W 8 13 30.00 1016 10 16 0.00 0.00
5:56 am 05:56 Clear 29 -1.7 25 -3.9 85 85 NW 7 11 30.02 1017 10 16 0.00 0.00
6:56 am 06:56 Clear 28 -2.2 24 -4.4 85 85 NW 7 11 30.05 1018 10 16 0.00 0.00
7:56 am 07:56 Sunny 28 -2.2 23 -5 81 81 NW 7 11 30.07 1018 10 16 0.00 0.00
8:56 am 08:56 Sunny 30 -1.1 25 -3.9 82 82 NW 5 7 30.09 1019 10 16 0.00 0.00
9:56 am 09:56 Sunny 35 1.7 26 -3.3 70 70 NW 7 11 30.11 1020 10 16 0.00 0.00
10:56 am 10:56 Sunny 38 3.3 27 -2.8 65 65 N 8 13 30.10 1019 10 16 0.00 0.00
11:56 am 11:56 Sunny 38 3.3 27 -2.8 65 65 Calm 30.08 1019 10 16 0.00 0.00
12:56 pm 12:56 Sunny 39 3.9 28 -2.2 65 65 Calm 30.04 1017 10 16 0.00 0.00
1:56 pm 13:56 Sunny 41 5 29 -1.7 62 62 Calm 30.02 1017 10 16 0.00 0.00
2:56 pm 14:56 Sunny 42 5.6 30 -1.1 62 62 SE 3 6 30.02 1017 10 16 0.00 0.00
3:56 pm 15:56 Sunny 41 5 30 -1.1 65 65 SSE 7 11 30.02 1017 10 16 0.00 0.00
4:56 pm 16:56 Sunny 35 1.7 28 -2.2 76 76 S 6 9 30.03 1017 10 16 0.00 0.00
5:56 pm 17:56 Mostly Clear 31 -0.6 27 -2.8 85 85 ESE 6 9 30.04 1017 10 16 0.00 0.00
6:56 pm 18:56 Clear 30 -1.1 27 -2.8 88 88 SE 6 9 30.05 1018 10 16 0.00 0.00
7:56 pm 19:56 Clear 28 -2.2 25 -3.9 88 88 ESE 3 6 30.04 1017 10 16 0.00 0.00
8:56 pm 20:56 Clear 25 -3.9 23 -5 92 92 Calm 30.02 1017 10 16 0.00 0.00
9:56 pm 21:56 Clear 24 -4.4 22 -5.6 91 91 SSE 5 7 29.99 1016 10 16 0.00 0.00
10:56 pm 22:56 Clear 26 -3.3 25 -3.9 96 96 SSE 7 11 29.97 1015 10 16 0.00 0.00
11:56 pm 23:56 Clear 26 -3.3 24 -4.4 92 92 SSE 7 11 29.95 1014 10 16 0.00 0.00

Powered by AerisWeather